Location: Fluertsh�userhof
(48.7537°N, 10.3850°E)
Time: 06:29:23
(UTC+00:00)

CSL-04 Debris - Pass Details

Date: 18 September 2020
Orbit: 827 x 847 km, 98.9° (Epoch: 27 October)

Event Time Altitude Azimuth Distance (km) Brightness Sun altitude
Rises 18:16:10 0° 169° (S) 3,359 7.1 -9.3°
Reaches altitude 10° 18:18:31 10° 171° (S) 2,428 6.4 -9.7°
Maximum altitude 18:23:54 72° 256° (WSW) 872 4.5 -10.6°
Drops below altitude 10° 18:29:18 10° 341° (NNW) 2,443 7.1 -11.4°
Sets 18:31:41 0° 344° (NNW) 3,382 7.8 -11.8°
